Precipitable_Water
0.24 0.18 0.15 0.15 0.15 0.16 0.17 0.17 0.18 0.18 0.18 0.17 0.19 0.19 0.18 0.18 0.17 0.18 0.15 0.14 0.15 0.14 0.13 0.15 0.16 0.15 0.15 0.15 0.15 0.17 0.19 0.26 0.27 0.40 0.47 0.61 0.65 0.71 0.74 0.78 0.86 0.92 0.94 0.97 1.07 1.02 1.00 1.13 1.28 1.33 1.34 1.32 1.31 1.31 1.30 1.29 1.39 1.39 1.35 1.34 1.32 1.39 1.42 1.40 1.33 1.25 1.22 1.17 1.15 1.14 1.11 1.07 1.07 1.07 1.06 1.02 1.01 1.00 0.96 0.91 0.90 0.90 0.92 0.94 0.97 1.03
0.22 0.17 0.15 0.16 0.17 0.18 0.19 0.20 0.19 0.18 0.20 0.21 0.21 0.19 0.18 0.18 0.17 0.21 0.19 0.15 0.16 0.14 0.14 0.15 0.16 0.16 0.16 0.16 0.18 0.20 0.19 0.29 0.31 0.42 0.47 0.58 0.64 0.72 0.74 0.80 0.87 0.91 0.96 1.01 1.01 0.98 1.03 1.09 1.15 1.23 1.28 1.27 1.22 1.24 1.25 1.28 1.27 1.31 1.35 1.28 1.25 1.32 1.32 1.31 1.23 1.23 1.22 1.19 1.08 1.01 1.00 0.99 0.99 0.99 0.95 0.91 0.93 0.94 0.92 0.91 0.92 0.91 0.94 0.94 0.95 1.00
0.19 0.16 0.17 0.18 0.19 0.21 0.20 0.22 0.24 0.21 0.19 0.21 0.21 0.20 0.18 0.19 0.22 0.23 0.22 0.20 0.17 0.16 0.15 0.16 0.15 0.16 0.17 0.17 0.18 0.19 0.19 0.23 0.31 0.39 0.48 0.55 0.62 0.67 0.75 0.79 0.82 0.81 0.85 0.93 0.93 1.04 0.99 1.02 1.11 1.22 1.27 1.27 1.29 1.24 1.27 1.22 1.20 1.23 1.30 1.29 1.24 1.26 1.26 1.21 1.19 1.22 1.19 1.15 1.07 0.98 0.96 0.98 0.96 1.03 1.00 0.96 0.96 0.97 0.93 0.92 0.90 0.88 0.85 0.86 0.86 0.93
0.17 0.17 0.17 0.19 0.21 0.22 0.23 0.23 0.23 0.23 0.22 0.21 0.20 0.18 0.17 0.22 0.22 0.18 0.19 0.18 0.19 0.17 0.15 0.16 0.16 0.17 0.19 0.18 0.17 0.19 0.24 0.25 0.29 0.35 0.46 0.50 0.52 0.62 0.68 0.71 0.72 0.72 0.76 0.74 0.90 1.02 1.06 1.09 1.11 1.21 1.25 1.27 1.29 1.26 1.22 1.16 1.19 1.30 1.32 1.33 1.27 1.22 1.17 1.06 1.10 1.14 1.15 1.06 1.01 0.98 0.98 0.97 0.95 0.92 0.93 0.89 0.85 0.82 0.85 0.82 0.89 0.93 0.90 0.88 0.91 0.94
0.17 0.23 0.26 0.25 0.25 0.22 0.21 0.23 0.24 0.24 0.23 0.25 0.22 0.19 0.20 0.23 0.25 0.28 0.27 0.23 0.21 0.20 0.20 0.19 0.18 0.19 0.18 0.16 0.15 0.17 0.24 0.26 0.26 0.30 0.40 0.54 0.56 0.65 0.79 0.82 0.75 0.72 0.74 0.80 0.97 1.05 1.09 1.11 1.10 1.18 1.24 1.23 1.21 1.22 1.17 1.15 1.22 1.31 1.33 1.33 1.27 1.18 1.15 1.06 1.08 1.07 1.04 0.99 0.94 0.95 0.98 0.98 0.94 0.92 0.86 0.77 0.79 0.84 0.87 0.84 0.86 0.87 0.88 0.83 0.84 0.88
0.19 0.26 0.29 0.27 0.27 0.25 0.21 0.21 0.23 0.24 0.22 0.23 0.24 0.22 0.24 0.25 0.25 0.27 0.28 0.27 0.20 0.17 0.20 0.21 0.17 0.16 0.20 0.18 0.17 0.17 0.17 0.20 0.28 0.28 0.32 0.35 0.50 0.70 0.77 0.77 0.82 0.80 0.78 0.84 0.93 1.06 1.14 1.12 1.14 1.14 1.18 1.18 1.19 1.19 1.18 1.21 1.23 1.28 1.33 1.37 1.36 1.25 1.15 1.06 1.02 1.01 0.97 0.89 0.85 0.86 0.84 0.82 0.82 0.76 0.72 0.68 0.74 0.82 0.80 0.81 0.85 0.88 0.83 0.85 0.84 0.84
0.19 0.27 0.29 0.29 0.28 0.25 0.24 0.23 0.28 0.25 0.21 0.20 0.20 0.24 0.25 0.26 0.26 0.27 0.24 0.23 0.22 0.19 0.23 0.23 0.17 0.16 0.20 0.20 0.19 0.22 0.21 0.19 0.26 0.30 0.34 0.43 0.50 0.63 0.72 0.75 0.75 0.80 0.87 0.95 1.08 1.12 1.09 1.11 1.19 1.15 1.17 1.18 1.17 1.21 1.23 1.23 1.24 1.27 1.30 1.35 1.35 1.30 1.24 1.17 1.07 1.01 0.99 0.93 0.93 0.90 0.87 0.85 0.80 0.71 0.72 0.78 0.80 0.82 0.86 0.85 0.86 0.86 0.88 0.84 0.79 0.78
0.20 0.23 0.26 0.30 0.29 0.27 0.25 0.22 0.27 0.28 0.24 0.18 0.22 0.23 0.25 0.25 0.23 0.23 0.23 0.21 0.22 0.27 0.27 0.27 0.23 0.18 0.18 0.21 0.22 0.23 0.22 0.20 0.23 0.30 0.37 0.50 0.54 0.64 0.72 0.76 0.81 0.96 0.95 0.97 1.03 1.08 1.12 1.15 1.17 1.13 1.19 1.23 1.19 1.22 1.23 1.22 1.21 1.20 1.29 1.29 1.27 1.27 1.17 1.12 1.08 1.06 1.05 1.00 0.98 0.92 0.88 0.80 0.73 0.72 0.74 0.79 0.83 0.89 0.87 0.84 0.84 0.83 0.82 0.81 0.82 0.79
0.21 0.23 0.24 0.25 0.25 0.26 0.25 0.27 0.27 0.27 0.22 0.20 0.22 0.20 0.21 0.22 0.22 0.21 0.21 0.21 0.24 0.24 0.23 0.25 0.27 0.21 0.20 0.23 0.26 0.23 0.20 0.21 0.29 0.33 0.49 0.55 0.62 0.72 0.76 0.81 0.96 0.95 0.93 1.01 1.06 1.04 1.06 1.08 1.16 1.16 1.19 1.24 1.23 1.22 1.20 1.19 1.21 1.26 1.26 1.23 1.21 1.15 1.09 1.08 1.08 1.08 1.07 0.99 0.92 0.87 0.80 0.79 0.83 0.84 0.82 0.83 0.85 0.82 0.83 0.77 0.83 0.89 0.88 0.89 0.90 0.89
0.27 0.27 0.28 0.25 0.24 0.23 0.26 0.28 0.29 0.27 0.20 0.19 0.19 0.21 0.21 0.21 0.20 0.22 0.21 0.22 0.25 0.22 0.19 0.23 0.27 0.21 0.21 0.25 0.22 0.23 0.21 0.21 0.27 0.42 0.52 0.56 0.64 0.72 0.77 0.89 0.90 0.93 1.00 1.04 1.06 1.10 1.08 1.10 1.10 1.09 1.16 1.22 1.21 1.24 1.27 1.26 1.23 1.19 1.18 1.15 1.12 1.04 1.03 1.05 1.07 1.07 0.99 0.92 0.87 0.85 0.86 0.86 0.86 0.86 0.83 0.80 0.77 0.74 0.74 0.81 0.88 0.88 0.85 0.84 0.85 0.88
0.27 0.32 0.30 0.26 0.24 0.25 0.27 0.27 0.26 0.25 0.23 0.22 0.21 0.20 0.20 0.20 0.20 0.21 0.21 0.22 0.21 0.19 0.21 0.25 0.28 0.25 0.21 0.26 0.27 0.25 0.25 0.25 0.29 0.44 0.54 0.61 0.68 0.72 0.83 0.88 0.85 0.92 0.99 0.98 0.96 1.03 1.05 1.09 1.11 1.10 1.05 1.05 1.14 1.21 1.24 1.19 1.12 1.08 1.07 1.07 1.04 0.97 1.00 1.02 1.03 1.00 0.91 0.87 0.90 0.89 0.87 0.87 0.84 0.83 0.80 0.74 0.72 0.73 0.78 0.81 0.85 0.83 0.82 0.81 0.80 0.84
0.26 0.29 0.26 0.27 0.29 0.29 0.28 0.25 0.24 0.23 0.23 0.22 0.19 0.20 0.20 0.19 0.22 0.22 0.17 0.19 0.17 0.17 0.23 0.28 0.28 0.28 0.20 0.24 0.30 0.37 0.39 0.29 0.32 0.44 0.48 0.55 0.62 0.71 0.86 0.89 0.87 0.92 0.93 0.92 0.95 0.99 1.01 1.03 1.03 1.01 0.97 1.01 1.06 1.11 1.13 1.09 1.04 1.02 1.02 1.00 0.96 0.93 0.94 0.94 0.94 0.93 0.88 0.91 0.92 0.88 0.85 0.84 0.84 0.80 0.74 0.68 0.66 0.72 0.76 0.77 0.76 0.79 0.78 0.77 0.77 0.78
0.22 0.24 0.26 0.27 0.29 0.26 0.24 0.20 0.21 0.22 0.23 0.20 0.20 0.20 0.17 0.18 0.19 0.16 0.16 0.12 0.13 0.16 0.21 0.24 0.25 0.24 0.23 0.28 0.38 0.42 0.40 0.39 0.38 0.48 0.52 0.58 0.65 0.76 0.84 0.84 0.91 0.93 0.93 0.94 0.95 0.95 0.93 0.93 0.93 0.91 0.93 0.97 1.01 0.99 1.01 1.03 1.04 1.04 1.02 0.97 0.90 0.89 0.92 0.89 0.90 0.89 0.91 0.88 0.83 0.83 0.82 0.84 0.85 0.81 0.76 0.71 0.69 0.73 0.72 0.73 0.76 0.78 0.77 0.74 0.69 0.69
0.20 0.23 0.23 0.24 0.26 0.27 0.24 0.18 0.19 0.19 0.23 0.21 0.19 0.18 0.17 0.17 0.17 0.16 0.17 0.15 0.15 0.17 0.20 0.20 0.24 0.21 0.29 0.35 0.45 0.43 0.47 0.50 0.51 0.55 0.61 0.63 0.68 0.79 0.86 0.91 0.96 0.97 0.96 0.93 0.93 0.90 0.88 0.91 0.94 0.93 0.95 0.96 0.96 0.96 0.96 0.99 1.00 1.01 0.98 0.96 0.92 0.88 0.89 0.88 0.91 0.94 0.89 0.83 0.85 0.85 0.84 0.87 0.86 0.83 0.77 0.73 0.70 0.72 0.72 0.79 0.80 0.79 0.77 0.73 0.74 0.74
0.17 0.16 0.18 0.20 0.19 0.24 0.23 0.20 0.21 0.22 0.24 0.23 0.24 0.21 0.19 0.19 0.19 0.16 0.17 0.15 0.13 0.15 0.19 0.25 0.21 0.22 0.23 0.33 0.50 0.52 0.53 0.57 0.64 0.69 0.72 0.72 0.76 0.85 0.90 0.98 1.00 0.98 0.95 0.96 0.93 0.89 0.90 0.92 0.93 0.94 0.95 0.97 0.98 0.98 1.01 1.01 1.00 1.02 0.98 0.93 0.88 0.86 0.87 0.86 0.88 0.89 0.85 0.86 0.89 0.90 0.90 0.91 0.87 0.84 0.78 0.77 0.75 0.78 0.76 0.83 0.81 0.83 0.84 0.80 0.83 0.82
0.20 0.19 0.22 0.22 0.22 0.24 0.22 0.22 0.22 0.25 0.26 0.28 0.24 0.22 0.19 0.19 0.24 0.20 0.24 0.22 0.21 0.20 0.18 0.23 0.22 0.35 0.33 0.51 0.57 0.60 0.59 0.60 0.65 0.72 0.80 0.81 0.82 0.86 0.85 0.88 0.90 0.92 0.92 0.94 0.91 0.88 0.89 0.90 0.92 0.93 0.95 1.02 1.03 1.01 1.00 0.99 0.98 0.95 0.92 0.88 0.87 0.84 0.84 0.84 0.85 0.85 0.86 0.88 0.91 0.91 0.90 0.92 0.88 0.83 0.80 0.80 0.81 0.84 0.80 0.82 0.82 0.86 0.86 0.85 0.83 0.80
0.21 0.19 0.24 0.24 0.26 0.25 0.24 0.23 0.23 0.27 0.19 0.28 0.24 0.18 0.19 0.26 0.25 0.24 0.26 0.28 0.25 0.22 0.19 0.26 0.27 0.34 0.44 0.49 0.56 0.56 0.56 0.60 0.70 0.72 0.74 0.79 0.81 0.82 0.81 0.83 0.85 0.86 0.87 0.88 0.88 0.90 0.92 0.93 0.95 1.00 1.03 1.03 1.02 1.01 1.00 1.00 0.99 0.94 0.90 0.88 0.86 0.87 0.88 0.84 0.82 0.83 0.86 0.90 0.91 0.92 0.94 0.94 0.89 0.81 0.79 0.81 0.83 0.84 0.83 0.81 0.86 0.87 0.87 0.86 0.83 0.78
0.21 0.22 0.26 0.28 0.23 0.26 0.26 0.25 0.24 0.27 0.27 0.25 0.21 0.22 0.23 0.24 0.28 0.25 0.22 0.24 0.22 0.19 0.20 0.23 0.24 0.28 0.28 0.29 0.50 0.52 0.48 0.57 0.63 0.70 0.72 0.74 0.78 0.79 0.82 0.82 0.82 0.85 0.90 0.96 0.97 0.99 0.99 0.97 0.96 1.03 1.06 1.02 1.01 1.01 1.01 1.01 1.00 0.98 0.93 0.89 0.85 0.85 0.86 0.87 0.85 0.87 0.89 0.91 0.93 0.95 0.97 0.95 0.86 0.81 0.82 0.86 0.85 0.85 0.84 0.85 0.89 0.89 0.85 0.83 0.82 0.78
0.24 0.19 0.24 0.28 0.30 0.33 0.32 0.26 0.23 0.25 0.27 0.25 0.26 0.31 0.21 0.20 0.18 0.25 0.25 0.20 0.20 0.19 0.20 0.23 0.27 0.30 0.32 0.34 0.44 0.47 0.46 0.53 0.59 0.64 0.67 0.70 0.75 0.76 0.78 0.80 0.82 0.84 0.88 0.94 0.96 1.00 1.01 0.98 1.01 1.03 0.99 0.99 1.01 1.02 1.02 1.03 1.02 1.00 0.99 0.97 0.92 0.86 0.89 0.92 0.94 0.96 0.97 0.98 0.99 1.00 0.99 0.93 0.88 0.85 0.85 0.89 0.87 0.86 0.84 0.86 0.88 0.87 0.85 0.82 0.82 0.75
0.28 0.21 0.23 0.28 0.29 0.35 0.32 0.27 0.20 0.21 0.24 0.25 0.29 0.30 0.32 0.27 0.25 0.23 0.23 0.26 0.24 0.22 0.20 0.21 0.28 0.27 0.37 0.41 0.46 0.46 0.52 0.55 0.59 0.59 0.61 0.68 0.72 0.75 0.77 0.81 0.83 0.83 0.84 0.86 0.91 0.95 0.98 1.00 1.04 1.01 0.94 0.95 0.97 0.98 0.98 0.99 1.01 1.00 1.01 0.98 0.95 0.97 0.97 0.98 1.00 1.04 1.03 1.02 1.01 1.03 1.02 0.95 0.92 0.89 0.87 0.88 0.86 0.84 0.83 0.85 0.86 0.85 0.82 0.81 0.80 0.72
0.25 0.27 0.21 0.28 0.34 0.33 0.26 0.28 0.23 0.23 0.22 0.22 0.22 0.23 0.27 0.28 0.33 0.30 0.31 0.26 0.25 0.23 0.22 0.22 0.22 0.29 0.44 0.53 0.52 0.53 0.57 0.60 0.61 0.59 0.62 0.67 0.72 0.75 0.78 0.79 0.82 0.87 0.88 0.90 0.93 0.96 0.98 1.01 1.04 1.04 1.02 0.99 1.00 1.02 0.99 1.00 1.01 1.02 1.02 1.01 1.01 1.01 1.03 1.02 1.06 1.08 1.09 1.09 1.06 1.05 1.04 1.00 0.95 0.91 0.92 0.88 0.86 0.82 0.83 0.85 0.85 0.83 0.84 0.83 0.77 0.71
0.27 0.25 0.20 0.25 0.28 0.28 0.30 0.36 0.38 0.32 0.30 0.28 0.25 0.22 0.23 0.26 0.25 0.22 0.22 0.29 0.28 0.25 0.23 0.22 0.22 0.38 0.51 0.64 0.63 0.62 0.63 0.63 0.67 0.65 0.64 0.69 0.74 0.80 0.83 0.87 0.87 0.88 0.94 0.95 0.97 0.99 1.01 1.03 1.01 1.04 1.05 1.03 1.00 1.02 1.01 1.04 1.08 1.08 1.05 1.05 1.06 1.05 1.07 1.08 1.10 1.13 1.15 1.12 1.10 1.07 1.07 1.07 1.02 0.97 0.96 0.90 0.86 0.82 0.82 0.83 0.85 0.82 0.84 0.80 0.76 0.69
0.39 0.32 0.25 0.21 0.25 0.30 0.34 0.39 0.39 0.39 0.36 0.31 0.30 0.30 0.29 0.28 0.28 0.25 0.21 0.25 0.29 0.29 0.31 0.30 0.25 0.36 0.60 0.68 0.67 0.66 0.70 0.69 0.71 0.71 0.69 0.75 0.81 0.84 0.88 0.90 0.94 0.95 0.95 0.97 0.99 1.01 1.00 1.00 1.01 1.01 1.00 0.98 0.98 1.01 1.05 1.09 1.12 1.13 1.15 1.12 1.13 1.13 1.15 1.19 1.19 1.21 1.20 1.14 1.11 1.08 1.09 1.09 1.05 1.02 0.98 0.93 0.88 0.85 0.84 0.85 0.84 0.79 0.79 0.77 0.76 0.71
0.41 0.32 0.26 0.25 0.28 0.32 0.37 0.40 0.40 0.41 0.36 0.32 0.33 0.35 0.34 0.32 0.33 0.27 0.24 0.30 0.29 0.30 0.27 0.28 0.25 0.39 0.61 0.70 0.70 0.73 0.74 0.73 0.76 0.75 0.71 0.78 0.82 0.86 0.88 0.90 0.91 0.90 0.95 1.03 1.01 1.05 1.06 1.06 1.01 0.98 0.98 1.04 1.04 1.03 1.08 1.14 1.15 1.11 1.07 1.16 1.17 1.23 1.20 1.22 1.24 1.22 1.21 1.21 1.16 1.15 1.13 1.12 1.12 1.06 1.02 0.99 0.96 0.91 0.89 0.88 0.82 0.77 0.77 0.75 0.76 0.69
0.33 0.35 0.30 0.26 0.24 0.25 0.29 0.35 0.36 0.40 0.39 0.35 0.34 0.39 0.41 0.38 0.34 0.35 0.33 0.34 0.26 0.28 0.29 0.27 0.23 0.35 0.57 0.71 0.70 0.69 0.68 0.69 0.70 0.74 0.77 0.75 0.77 0.80 0.86 0.88 0.93 0.95 0.95 0.96 0.95 0.97 0.99 0.97 0.96 0.97 1.01 1.03 1.05 1.06 1.07 1.08 1.12 1.08 1.09 1.06 1.10 1.10 1.14 1.19 1.21 1.18 1.19 1.19 1.15 1.17 1.19 1.19 1.22 1.15 1.07 1.03 0.99 0.94 0.93 0.90 0.80 0.77 0.74 0.74 0.73 0.70
0.39 0.38 0.32 0.25 0.23 0.20 0.18 0.21 0.25 0.29 0.33 0.36 0.36 0.37 0.40 0.36 0.34 0.31 0.27 0.27 0.23 0.28 0.28 0.25 0.29 0.43 0.57 0.67 0.66 0.67 0.63 0.63 0.68 0.67 0.71 0.76 0.77 0.80 0.86 0.89 0.92 0.93 0.95 0.92 0.90 0.95 0.92 0.98 1.03 1.05 1.06 1.10 1.13 1.11 1.11 1.11 1.09 1.09 1.11 1.11 1.10 1.11 1.15 1.14 1.19 1.20 1.12 1.16 1.18 1.13 1.15 1.23 1.23 1.15 1.15 1.07 0.99 0.94 0.93 0.93 0.85 0.79 0.75 0.79 0.73 0.72
0.41 0.41 0.37 0.33 0.29 0.28 0.29 0.31 0.38 0.39 0.37 0.33 0.35 0.37 0.39 0.39 0.40 0.37 0.35 0.28 0.25 0.30 0.30 0.32 0.32 0.42 0.49 0.56 0.58 0.62 0.66 0.62 0.60 0.63 0.64 0.68 0.75 0.82 0.84 0.86 0.89 0.94 0.96 0.94 0.96 0.98 0.99 0.99 1.00 1.02 1.03 1.05 1.05 1.08 1.09 1.04 1.03 1.02 1.07 1.10 1.12 1.16 1.15 1.20 1.18 1.15 1.13 1.13 1.13 1.11 1.11 1.17 1.15 1.10 1.03 1.01 1.01 0.99 0.97 0.94 0.89 0.82 0.79 0.86 0.77 0.71
0.41 0.37 0.39 0.38 0.36 0.36 0.36 0.37 0.39 0.38 0.35 0.36 0.35 0.37 0.39 0.38 0.40 0.37 0.34 0.29 0.41 0.29 0.26 0.39 0.40 0.36 0.46 0.55 0.59 0.60 0.62 0.66 0.68 0.71 0.71 0.71 0.76 0.76 0.80 0.85 0.89 0.91 0.94 0.97 0.99 1.01 1.02 1.03 1.03 1.00 0.98 1.03 1.04 1.00 1.01 1.05 1.06 1.06 1.09 1.05 1.03 1.08 1.10 1.09 1.03 1.03 1.06 1.09 1.08 1.11 1.11 1.14 1.15 1.07 1.03 0.99 0.99 1.03 1.00 0.96 0.97 0.91 0.84 0.88 0.82 0.76
0.41 0.36 0.39 0.38 0.36 0.38 0.39 0.38 0.39 0.38 0.37 0.38 0.38 0.39 0.37 0.39 0.39 0.37 0.37 0.40 0.38 0.29 0.29 0.42 0.43 0.40 0.49 0.56 0.61 0.64 0.64 0.67 0.71 0.73 0.77 0.78 0.81 0.85 0.84 0.82 0.85 0.87 0.91 0.91 0.91 0.94 0.94 0.97 1.01 0.99 1.01 0.99 0.96 0.93 0.93 0.94 0.96 1.03 1.08 1.13 1.13 1.15 1.11 1.07 1.02 1.03 1.03 1.06 1.02 1.04 1.06 1.07 1.05 1.00 1.03 1.01 1.03 1.01 0.97 0.97 0.99 0.98 0.90 0.91 0.89 0.84
0.44 0.38 0.42 0.40 0.36 0.37 0.38 0.39 0.39 0.36 0.37 0.37 0.38 0.40 0.41 0.40 0.40 0.42 0.44 0.44 0.39 0.38 0.43 0.47 0.47 0.46 0.52 0.58 0.66 0.69 0.73 0.72 0.74 0.78 0.79 0.77 0.76 0.76 0.71 0.74 0.77 0.77 0.77 0.77 0.78 0.81 0.81 0.80 0.80 0.81 0.86 0.86 0.91 0.95 0.97 0.97 0.95 0.99 0.98 1.01 1.05 1.05 1.10 1.14 1.09 1.06 1.09 1.07 1.09 1.05 1.06 1.06 1.06 1.08 1.10 1.08 1.07 1.04 1.00 0.98 0.99 0.99 0.91 0.92 0.94 0.92
0.44 0.39 0.44 0.44 0.37 0.35 0.37 0.37 0.38 0.37 0.35 0.34 0.37 0.38 0.42 0.42 0.42 0.44 0.47 0.50 0.46 0.46 0.51 0.48 0.42 0.43 0.55 0.65 0.67 0.72 0.73 0.71 0.70 0.69 0.70 0.71 0.71 0.70 0.73 0.72 0.73 0.71 0.69 0.70 0.73 0.74 0.74 0.73 0.73 0.74 0.74 0.76 0.78 0.81 0.84 0.87 0.97 0.98 0.95 0.97 1.01 1.01 1.05 1.11 1.09 1.00 1.04 1.04 1.10 1.10 1.09 1.06 1.06 1.08 1.06 1.04 1.06 1.08 1.03 0.96 0.96 0.94 0.89 0.88 0.87 0.88
0.46 0.42 0.44 0.42 0.35 0.31 0.35 0.36 0.36 0.36 0.35 0.33 0.35 0.38 0.39 0.37 0.37 0.41 0.40 0.47 0.46 0.43 0.45 0.44 0.40 0.40 0.53 0.63 0.66 0.66 0.68 0.67 0.63 0.64 0.64 0.65 0.67 0.69 0.69 0.69 0.69 0.68 0.68 0.69 0.69 0.70 0.70 0.70 0.70 0.70 0.71 0.72 0.71 0.70 0.71 0.73 0.76 0.82 0.90 0.97 0.98 1.06 1.07 1.05 1.04 1.04 1.04 1.01 1.00 1.05 1.07 1.03 1.08 1.09 1.07 1.04 1.01 1.01 1.07 1.02 0.94 0.90 0.89 0.87 0.86 0.87
0.42 0.41 0.38 0.39 0.33 0.32 0.38 0.39 0.36 0.35 0.32 0.28 0.31 0.37 0.41 0.41 0.42 0.44 0.47 0.50 0.51 0.51 0.43 0.40 0.41 0.53 0.58 0.64 0.63 0.63 0.63 0.63 0.62 0.61 0.61 0.63 0.64 0.65 0.64 0.63 0.65 0.67 0.68 0.68 0.68 0.68 0.67 0.66 0.66 0.67 0.67 0.68 0.66 0.66 0.68 0.69 0.70 0.73 0.81 0.84 0.90 0.93 0.95 0.99 1.00 1.00 0.95 0.94 1.00 1.02 1.02 1.03 1.06 1.08 1.07 1.08 1.11 1.09 1.05 1.01 1.00 0.96 0.93 0.90 0.90 0.89
0.41 0.36 0.36 0.42 0.30 0.32 0.37 0.37 0.37 0.31 0.22 0.26 0.45 0.46 0.42 0.40 0.40 0.39 0.42 0.47 0.52 0.52 0.45 0.52 0.54 0.61 0.63 0.63 0.61 0.61 0.61 0.62 0.62 0.62 0.64 0.63 0.62 0.62 0.63 0.63 0.64 0.65 0.68 0.70 0.71 0.71 0.71 0.70 0.69 0.69 0.68 0.67 0.68 0.69 0.70 0.70 0.67 0.68 0.71 0.73 0.74 0.71 0.70 0.72 0.73 0.72 0.70 0.76 0.88 0.96 0.99 0.99 0.99 1.01 1.03 1.01 1.05 0.99 0.98 0.94 0.94 0.96 0.96 0.97 0.96 0.94
0.36 0.36 0.33 0.38 0.34 0.32 0.37 0.35 0.29 0.23 0.26 0.43 0.51 0.51 0.50 0.47 0.45 0.44 0.47 0.50 0.53 0.55 0.53 0.51 0.54 0.58 0.63 0.64 0.66 0.65 0.64 0.65 0.64 0.63 0.65 0.67 0.67 0.65 0.63 0.64 0.64 0.66 0.67 0.69 0.71 0.73 0.74 0.74 0.74 0.74 0.73 0.72 0.71 0.71 0.71 0.71 0.70 0.68 0.68 0.69 0.68 0.68 0.67 0.67 0.66 0.66 0.66 0.67 0.68 0.69 0.72 0.73 0.78 0.84 0.88 0.90 0.89 0.86 0.88 0.89 0.90 0.90 0.92 0.93 0.90 0.87
0.35 0.33 0.36 0.34 0.35 0.36 0.34 0.33 0.23 0.25 0.42 0.47 0.50 0.50 0.51 0.48 0.47 0.44 0.42 0.48 0.52 0.51 0.52 0.51 0.52 0.54 0.57 0.61 0.65 0.67 0.67 0.66 0.66 0.66 0.67 0.68 0.70 0.69 0.69 0.68 0.68 0.70 0.70 0.72 0.72 0.74 0.72 0.75 0.73 0.74 0.76 0.77 0.75 0.74 0.73 0.73 0.73 0.70 0.68 0.69 0.69 0.69 0.69 0.69 0.68 0.67 0.67 0.66 0.67 0.68 0.69 0.69 0.71 0.71 0.71 0.71 0.71 0.76 0.82 0.83 0.83 0.84 0.85 0.84 0.86 0.87
0.42 0.38 0.36 0.30 0.36 0.26 0.29 0.29 0.28 0.40 0.37 0.40 0.42 0.44 0.45 0.41 0.42 0.40 0.33 0.41 0.50 0.51 0.51 0.47 0.48 0.51 0.53 0.58 0.61 0.62 0.64 0.64 0.60 0.61 0.66 0.66 0.67 0.70 0.68 0.68 0.67 0.68 0.69 0.70 0.72 0.73 0.74 0.73 0.72 0.71 0.72 0.73 0.74 0.74 0.75 0.76 0.74 0.73 0.72 0.71 0.71 0.72 0.72 0.72 0.71 0.71 0.71 0.70 0.71 0.69 0.68 0.66 0.68 0.69 0.70 0.70 0.69 0.69 0.70 0.76 0.89 0.89 0.89 0.82 0.82 0.79
0.40 0.33 0.37 0.29 0.32 0.34 0.28 0.26 0.27 0.28 0.25 0.33 0.44 0.49 0.53 0.54 0.54 0.53 0.44 0.40 0.50 0.53 0.55 0.50 0.47 0.50 0.52 0.55 0.58 0.59 0.60 0.56 0.50 0.53 0.62 0.66 0.68 0.68 0.68 0.67 0.66 0.65 0.65 0.66 0.69 0.70 0.70 0.70 0.69 0.69 0.68 0.67 0.67 0.68 0.70 0.70 0.69 0.69 0.69 0.69 0.71 0.71 0.70 0.69 0.69 0.70 0.70 0.69 0.68 0.68 0.68 0.69 0.70 0.70 0.70 0.71 0.72 0.72 0.73 0.73 0.74 0.73 0.83 0.83 0.81 0.78
0.40 0.40 0.39 0.33 0.32 0.31 0.28 0.24 0.24 0.22 0.28 0.40 0.44 0.48 0.52 0.55 0.53 0.53 0.41 0.36 0.49 0.52 0.53 0.52 0.49 0.52 0.54 0.54 0.56 0.57 0.52 0.45 0.45 0.52 0.61 0.65 0.65 0.66 0.65 0.65 0.65 0.67 0.66 0.65 0.63 0.64 0.64 0.65 0.65 0.65 0.65 0.66 0.65 0.66 0.67 0.67 0.66 0.66 0.64 0.66 0.67 0.67 0.67 0.68 0.69 0.70 0.70 0.70 0.70 0.69 0.68 0.68 0.68 0.68 0.69 0.69 0.70 0.72 0.72 0.73 0.72 0.73 0.73 0.73 0.72 0.74
0.37 0.35 0.37 0.33 0.32 0.33 0.31 0.26 0.25 0.30 0.29 0.40 0.47 0.48 0.52 0.55 0.56 0.48 0.30 0.31 0.48 0.52 0.52 0.52 0.50 0.51 0.55 0.57 0.58 0.55 0.51 0.44 0.45 0.51 0.58 0.61 0.62 0.63 0.62 0.62 0.61 0.61 0.61 0.60 0.62 0.62 0.62 0.62 0.60 0.60 0.60 0.61 0.63 0.64 0.64 0.63 0.62 0.64 0.66 0.68 0.69 0.67 0.66 0.68 0.69 0.70 0.70 0.71 0.70 0.70 0.68 0.68 0.67 0.67 0.67 0.66 0.64 0.64 0.64 0.65 0.66 0.68 0.70 0.72 0.72 0.71
0.32 0.31 0.32 0.30 0.32 0.31 0.30 0.29 0.32 0.33 0.41 0.44 0.43 0.46 0.48 0.53 0.49 0.33 0.26 0.38 0.50 0.52 0.53 0.53 0.53 0.55 0.56 0.54 0.54 0.47 0.51 0.54 0.56 0.58 0.60 0.61 0.61 0.59 0.60 0.60 0.57 0.55 0.55 0.57 0.58 0.61 0.60 0.60 0.60 0.59 0.59 0.63 0.64 0.65 0.66 0.65 0.65 0.64 0.64 0.64 0.63 0.64 0.65 0.65 0.66 0.65 0.64 0.64 0.63 0.64 0.64 0.64 0.63 0.62 0.62 0.63 0.63 0.63 0.62 0.60 0.58 0.58 0.58 0.59 0.63 0.66
0.30 0.32 0.33 0.33 0.30 0.29 0.31 0.27 0.28 0.33 0.42 0.46 0.46 0.46 0.50 0.44 0.30 0.28 0.44 0.56 0.53 0.51 0.54 0.55 0.53 0.52 0.51 0.50 0.50 0.49 0.50 0.53 0.54 0.55 0.54 0.54 0.54 0.55 0.56 0.57 0.55 0.54 0.53 0.53 0.55 0.57 0.58 0.57 0.56 0.57 0.58 0.58 0.59 0.59 0.59 0.59 0.56 0.55 0.55 0.55 0.53 0.55 0.57 0.56 0.56 0.55 0.54 0.54 0.53 0.54 0.54 0.55 0.55 0.55 0.55 0.55 0.55 0.54 0.53 0.53 0.53 0.53 0.53 0.52 0.51 0.51
0.31 0.27 0.28 0.28 0.32 0.32 0.31 0.27 0.25 0.21 0.38 0.46 0.46 0.44 0.49 0.36 0.38 0.47 0.51 0.53 0.54 0.52 0.52 0.53 0.52 0.51 0.51 0.49 0.49 0.49 0.49 0.50 0.51 0.52 0.52 0.52 0.53 0.53 0.53 0.52 0.52 0.52 0.50 0.49 0.50 0.53 0.54 0.54 0.53 0.54 0.56 0.57 0.56 0.56 0.55 0.54 0.52 0.51 0.52 0.50 0.51 0.53 0.54 0.53 0.53 0.52 0.52 0.51 0.51 0.51 0.51 0.50 0.50 0.49 0.49 0.49 0.49 0.48 0.48 0.49 0.48 0.48 0.49 0.49 0.49 0.48
0.36 0.30 0.30 0.31 0.34 0.27 0.27 0.24 0.25 0.35 0.42 0.49 0.45 0.37 0.46 0.48 0.53 0.52 0.49 0.45 0.50 0.51 0.50 0.51 0.51 0.51 0.51 0.50 0.49 0.49 0.49 0.49 0.50 0.50 0.50 0.50 0.50 0.48 0.48 0.49 0.50 0.51 0.50 0.49 0.50 0.51 0.52 0.51 0.53 0.52 0.53 0.54 0.54 0.54 0.54 0.52 0.49 0.49 0.47 0.47 0.51 0.51 0.51 0.50 0.50 0.49 0.48 0.48 0.49 0.49 0.50 0.50 0.50 0.50 0.49 0.48 0.46 0.46 0.45 0.45 0.45 0.46 0.46 0.47 0.47 0.47
0.36 0.30 0.32 0.27 0.36 0.31 0.29 0.34 0.40 0.44 0.47 0.50 0.49 0.48 0.50 0.53 0.54 0.54 0.52 0.50 0.48 0.50 0.54 0.51 0.50 0.51 0.51 0.50 0.50 0.50 0.49 0.49 0.49 0.49 0.47 0.46 0.46 0.45 0.45 0.47 0.48 0.49 0.49 0.48 0.49 0.51 0.52 0.51 0.51 0.51 0.51 0.52 0.52 0.51 0.50 0.49 0.46 0.44 0.43 0.45 0.47 0.47 0.46 0.46 0.46 0.45 0.44 0.44 0.44 0.44 0.44 0.44 0.44 0.44 0.44 0.45 0.45 0.43 0.42 0.42 0.42 0.42 0.42 0.42 0.43 0.43
0.35 0.35 0.36 0.32 0.29 0.37 0.40 0.41 0.42 0.43 0.45 0.47 0.49 0.51 0.51 0.52 0.54 0.54 0.52 0.50 0.52 0.52 0.53 0.51 0.52 0.52 0.52 0.52 0.49 0.49 0.49 0.49 0.48 0.47 0.45 0.45 0.45 0.47 0.48 0.48 0.48 0.49 0.49 0.48 0.48 0.48 0.49 0.49 0.48 0.48 0.46 0.46 0.47 0.46 0.46 0.45 0.45 0.42 0.43 0.45 0.45 0.44 0.43 0.42 0.41 0.40 0.40 0.40 0.40 0.40 0.41 0.40 0.40 0.41 0.41 0.41 0.41 0.41 0.41 0.40 0.40 0.39 0.39 0.40 0.40 0.40
0.30 0.33 0.30 0.25 0.32 0.27 0.24 0.38 0.37 0.36 0.40 0.41 0.43 0.48 0.50 0.53 0.53 0.53 0.52 0.52 0.52 0.53 0.52 0.53 0.53 0.52 0.52 0.52 0.51 0.50 0.49 0.49 0.48 0.47 0.47 0.47 0.47 0.48 0.47 0.46 0.47 0.47 0.45 0.45 0.47 0.48 0.47 0.46 0.43 0.42 0.42 0.41 0.43 0.43 0.44 0.44 0.44 0.43 0.43 0.42 0.42 0.41 0.41 0.40 0.39 0.37 0.37 0.36 0.37 0.37 0.37 0.36 0.36 0.36 0.36 0.36 0.37 0.37 0.37 0.37 0.37 0.36 0.35 0.36 0.36 0.36
0.22 0.29 0.29 0.29 0.28 0.24 0.26 0.33 0.36 0.38 0.39 0.39 0.40 0.40 0.42 0.46 0.48 0.51 0.52 0.52 0.52 0.52 0.52 0.52 0.52 0.50 0.51 0.49 0.49 0.48 0.48 0.49 0.48 0.47 0.47 0.48 0.49 0.49 0.49 0.49 0.48 0.48 0.47 0.47 0.47 0.46 0.43 0.41 0.40 0.39 0.39 0.38 0.40 0.42 0.42 0.42 0.41 0.41 0.41 0.41 0.41 0.40 0.39 0.38 0.38 0.37 0.37 0.37 0.38 0.37 0.38 0.37 0.37 0.36 0.36 0.36 0.36 0.36 0.36 0.36 0.36 0.35 0.34 0.33 0.33 0.32
0.28 0.29 0.23 0.28 0.27 0.33 0.35 0.36 0.34 0.35 0.34 0.34 0.36 0.38 0.40 0.43 0.44 0.45 0.47 0.47 0.47 0.46 0.47 0.48 0.48 0.47 0.47 0.45 0.45 0.44 0.44 0.45 0.46 0.48 0.48 0.48 0.48 0.47 0.46 0.46 0.47 0.46 0.45 0.43 0.43 0.42 0.41 0.40 0.39 0.39 0.39 0.38 0.40 0.41 0.41 0.40 0.40 0.40 0.39 0.39 0.40 0.40 0.38 0.37 0.38 0.38 0.38 0.38 0.38 0.38 0.38 0.38 0.37 0.36 0.35 0.35 0.35 0.35 0.36 0.35 0.35 0.35 0.35 0.37 0.38 0.36
0.25 0.23 0.29 0.28 0.24 0.25 0.26 0.30 0.34 0.26 0.25 0.32 0.35 0.36 0.37 0.39 0.39 0.40 0.41 0.41 0.41 0.40 0.41 0.41 0.41 0.42 0.43 0.44 0.45 0.45 0.42 0.42 0.44 0.46 0.46 0.47 0.46 0.44 0.43 0.44 0.44 0.43 0.43 0.44 0.44 0.41 0.39 0.39 0.39 0.38 0.39 0.39 0.41 0.41 0.40 0.39 0.39 0.40 0.41 0.41 0.41 0.40 0.38 0.37 0.37 0.37 0.37 0.37 0.37 0.37 0.37 0.36 0.36 0.36 0.36 0.35 0.34 0.34 0.34 0.37 0.37 0.37 0.35 0.34 0.37 0.39
0.22 0.25 0.27 0.24 0.24 0.25 0.34 0.36 0.36 0.36 0.35 0.35 0.36 0.37 0.39 0.40 0.40 0.39 0.39 0.39 0.39 0.39 0.39 0.39 0.38 0.38 0.38 0.40 0.43 0.42 0.41 0.41 0.40 0.43 0.42 0.42 0.41 0.41 0.42 0.42 0.42 0.42 0.42 0.43 0.42 0.40 0.39 0.39 0.40 0.40 0.40 0.40 0.41 0.40 0.39 0.39 0.40 0.40 0.41 0.42 0.42 0.41 0.39 0.39 0.37 0.37 0.37 0.37 0.36 0.37 0.37 0.37 0.37 0.37 0.37 0.37 0.36 0.35 0.34 0.34 0.37 0.38 0.38 0.38 0.38 0.39
Wind_Speed
14 14 16 16 16 16 17 18 18 17 17 18 17 17 17 16 16 16 15 16 16 17 20 20 18 19 17 15 17 18 15 14 18 20 18 18 17 17 17 16 15 14 13 13 14 14 13 12 12 12 13 13 12 12 12 10 9 9 10 10 11 11 11 11 12 12 12 12 12 11 9 8 7 7 7 6 5 5 4 3 3 2 1 1 1 1
13 15 16 16 16 16 17 17 17 17 17 18 17 17 16 15 15 15 15 16 15 15 20 19 17 18 16 16 17 18 15 12 15 18 18 18 17 16 16 16 16 14 14 14 14 14 13 12 13 14 14 14 13 12 12 10 9 9 9 10 10 10 11 12 12 13 13 12 11 10 9 8 8 7 7 7 6 5 4 3 3 2 1 1 1 1
14 15 15 15 15 16 16 16 16 17 17 17 16 16 16 14 12 12 13 16 15 15 20 21 18 17 16 17 17 17 16 15 16 18 19 19 17 16 16 17 17 15 15 15 15 14 13 13 13 14 14 14 13 12 12 11 10 10 10 10 10 11 12 13 13 14 13 11 10 10 9 9 8 8 7 7 6 5 4 3 2 2 1 1 0 0
13 13 14 14 14 15 16 16 15 15 16 16 16 15 15 13 10 8 9 11 12 13 16 19 16 14 14 16 17 16 16 17 18 18 19 21 19 18 18 18 17 16 16 15 15 14 14 13 13 14 14 14 13 13 12 11 10 10 11 11 11 12 13 14 14 13 11 10 10 10 9 9 8 8 7 6 5 5 4 3 2 2 1 0 0 0
14 13 11 12 13 15 16 16 15 14 14 14 15 15 15 14 11 9 6 6 8 11 12 13 13 12 12 13 15 16 16 17 18 17 18 19 19 18 18 18 17 16 16 15 15 15 14 13 14 14 14 14 13 13 12 12 11 11 11 11 12 13 14 15 14 13 12 11 11 10 10 9 9 8 7 6 5 5 4 3 2 2 2 1 1 1
15 14 12 13 14 14 15 16 14 14 14 14 14 15 16 15 13 11 8 4 5 11 13 11 11 12 11 12 14 15 16 17 17 17 17 16 16 17 16 17 17 16 15 14 15 15 14 13 13 14 14 14 13 13 13 12 12 11 11 12 13 14 15 14 14 13 13 12 11 11 11 10 10 9 7 6 6 5 4 3 3 2 2 2 1 1
13 14 14 15 15 15 15 15 14 13 13 15 14 15 15 15 13 11 10 8 7 11 14 12 12 12 12 13 14 14 15 16 17 16 16 15 15 16 16 16 16 14 13 13 14 14 14 13 12 12 13 13 13 13 13 13 12 11 12 13 14 15 15 14 14 14 13 12 12 12 11 11 10 9 7 6 6 5 4 3 3 3 2 2 2 1
13 14 14 14 15 15 14 13 13 12 13 14 14 15 16 15 14 12 11 11 10 10 12 12 12 13 14 16 17 16 14 14 16 16 15 15 15 15 15 15 13 11 11 12 13 13 13 11 9 10 12 13 13 13 13 13 12 12 13 14 15 15 15 15 15 14 13 12 12 12 12 11 10 9 7 7 6 5 4 3 3 3 3 2 1 1
13 14 14 14 13 12 11 12 13 12 12 13 12 15 17 16 15 13 12 12 10 9 11 12 12 11 14 16 16 17 17 16 16 16 15 15 15 15 15 14 11 11 12 12 12 12 12 9 8 9 11 11 13 13 13 13 13 13 14 15 15 15 15 15 14 14 13 12 12 12 12 11 10 9 8 7 6 5 4 3 3 3 2 2 2 1
12 13 14 15 14 12 11 12 13 13 12 12 12 14 15 16 16 14 14 13 10 9 12 12 12 11 11 13 12 13 17 18 18 17 16 16 16 15 14 12 12 12 12 12 13 13 12 10 10 11 11 11 11 12 12 13 13 13 14 15 15 15 14 14 14 14 14 13 13 12 12 11 10 9 8 7 6 5 5 4 4 4 3 3 3 2
13 12 12 14 13 13 13 12 12 13 12 11 11 12 13 13 14 14 16 14 10 10 13 13 12 10 10 11 12 12 14 17 18 18 17 17 16 15 13 12 13 13 13 13 13 13 13 12 12 12 12 12 12 11 11 12 13 13 14 15 15 14 13 14 14 14 14 14 14 13 12 11 10 9 9 8 7 6 5 5 5 5 4 4 4 3
16 13 10 11 11 11 12 12 12 13 12 11 11 12 12 11 10 11 14 14 12 12 12 13 12 11 11 11 11 11 10 13 17 18 18 17 15 14 12 12 13 13 13 13 12 13 13 13 13 13 12 12 13 13 13 13 13 14 14 15 15 14 14 14 13 14 14 14 14 13 12 11 11 10 9 9 8 7 6 6 6 5 4 4 4 4
16 14 12 11 10 10 11 12 12 12 13 13 12 12 11 9 8 9 11 14 15 14 13 13 12 12 12 11 11 9 8 9 14 17 18 16 14 13 13 13 13 13 12 12 12 12 13 13 14 14 13 13 13 13 14 14 14 14 14 15 15 14 14 14 14 14 14 15 15 13 12 11 11 11 10 9 9 8 7 6 6 5 4 4 4 4
13 14 14 13 12 12 13 12 11 11 11 14 14 12 11 9 8 9 10 11 13 14 14 14 13 12 11 10 9 9 8 8 11 14 16 15 14 13 12 13 13 12 12 11 12 12 13 14 14 14 13 13 13 13 13 14 14 14 13 14 14 14 14 13 13 14 15 15 15 14 13 12 11 11 11 10 10 9 8 7 6 5 4 4 4 4
12 13 14 14 12 12 13 14 13 10 9 13 13 12 12 11 10 10 9 9 11 12 12 12 12 11 11 10 10 9 9 8 8 10 12 12 13 12 12 13 12 12 12 12 12 13 14 14 14 14 14 13 12 12 12 13 14 14 13 13 14 14 14 13 13 14 14 14 14 13 13 12 12 12 11 11 11 10 9 8 7 6 5 4 4 4
12 13 13 15 14 13 13 14 14 11 9 10 12 13 14 13 11 11 10 9 9 8 8 10 10 11 11 12 11 8 8 8 9 10 10 11 11 10 11 12 11 11 12 12 13 13 14 14 14 14 14 14 13 12 12 13 13 14 14 14 14 14 14 14 14 14 14 14 13 13 12 12 12 12 12 12 12 11 10 9 8 7 6 5 5 5
12 12 11 13 15 14 13 13 14 13 11 9 11 13 14 13 11 10 10 10 8 7 9 10 9 10 9 10 10 8 7 8 9 10 10 10 10 10 10 10 10 11 11 12 13 13 14 15 14 14 14 14 14 14 13 13 14 14 14 14 15 15 15 14 14 14 14 14 13 13 12 11 12 12 13 12 12 12 11 9 8 8 7 6 6 6
12 13 11 10 13 13 13 13 14 15 13 10 10 12 11 10 11 10 9 9 8 8 10 10 11 10 9 10 10 8 8 9 8 9 9 9 10 10 10 10 10 11 11 11 12 13 13 14 15 14 14 14 14 15 15 15 14 15 15 14 15 15 15 14 15 15 15 14 14 13 12 11 11 12 12 12 12 12 11 10 9 9 8 7 7 7
12 13 13 11 11 11 11 13 14 15 14 13 11 11 10 9 10 11 10 9 9 10 9 9 10 10 9 11 11 10 10 10 9 9 9 9 10 11 11 11 11 11 12 11 12 13 14 15 16 15 14 15 15 15 15 15 15 15 15 14 14 15 15 14 14 15 15 14 14 13 12 11 11 12 12 11 12 12 10 10 10 9 9 8 7 7
14 12 13 12 11 10 10 12 14 14 14 14 12 10 10 10 11 11 11 11 10 10 10 9 8 9 11 12 12 11 12 11 9 10 10 10 11 11 12 12 11 12 12 12 12 13 14 15 16 15 15 15 15 15 15 15 15 16 16 15 14 15 15 15 14 15 15 15 14 13 12 12 12 12 12 12 12 12 11 10 10 10 9 8 8 8
15 15 14 13 12 11 11 10 11 12 12 13 15 13 11 11 11 11 12 12 10 9 9 9 9 11 12 12 11 11 11 10 9 10 10 10 11 12 12 12 12 12 12 12 13 14 15 15 15 15 15 15 16 16 16 16 16 16 16 16 16 16 16 16 16 16 15 15 15 14 13 14 14 14 14 13 13 12 12 11 10 10 9 9 9 9
14 16 16 15 13 14 14 11 8 9 10 10 12 14 13 12 11 10 11 13 13 10 9 9 9 10 10 10 10 11 11 10 8 8 9 9 10 11 12 11 11 11 12 13 14 15 16 15 15 15 14 15 16 16 16 16 16 16 16 16 17 17 18 18 17 17 16 16 16 16 15 15 15 15 15 14 13 13 12 11 11 11 10 10 10 9
12 13 16 16 15 15 15 13 9 8 8 9 9 9 10 11 12 12 12 13 12 12 10 8 8 10 10 9 10 10 10 9 8 7 7 8 8 9 10 10 10 10 10 11 13 13 14 15 15 14 13 14 15 16 16 16 15 15 15 16 16 17 17 16 16 16 16 16 16 16 15 15 15 15 15 15 14 13 12 12 11 11 10 10 10 10
12 11 12 14 15 15 15 14 12 9 8 9 8 7 7 8 10 12 14 13 12 12 11 9 9 11 11 9 9 10 9 8 7 7 7 7 8 9 9 10 9 9 9 10 11 11 11 12 13 12 12 14 15 15 15 15 15 15 15 14 14 15 14 14 14 15 15 15 15 14 15 15 15 15 15 14 14 13 12 12 11 10 10 10 11 10
14 12 10 10 12 13 14 15 14 12 10 9 8 7 7 7 8 9 11 11 12 13 12 10 11 12 12 10 9 9 9 8 7 6 6 7 8 9 10 10 9 9 10 10 11 11 12 12 12 11 12 13 13 13 13 13 13 13 13 13 13 13 14 14 14 15 15 15 15 14 13 14 14 14 13 13 13 13 12 12 11 10 10 11 11 11
16 15 12 10 11 12 15 16 16 14 13 11 10 7 6 7 7 9 11 11 11 12 12 12 12 12 12 11 10 9 9 8 8 7 6 6 8 8 8 9 8 8 8 9 9 10 11 11 10 9 9 10 9 9 9 9 9 9 10 10 10 11 12 12 13 14 15 16 16 15 13 13 14 13 12 12 12 12 12 11 11 11 11 11 11 11
15 16 15 13 12 12 13 15 16 15 13 12 11 8 7 7 7 8 10 10 12 12 11 12 14 13 11 10 9 9 8 8 9 8 6 6 7 7 7 7 8 8 7 7 7 8 8 9 9 7 7 7 6 6 6 6 7 7 8 8 9 9 9 9 9 10 11 13 15 15 14 14 14 13 13 12 12 11 11 11 11 12 11 11 11 11
12 14 16 15 14 13 13 13 14 15 15 14 12 9 8 8 8 8 9 11 13 12 11 13 15 14 13 11 10 10 9 9 9 8 6 5 6 7 6 6 7 7 7 7 7 7 7 7 7 6 6 6 5 5 5 5 5 5 6 6 7 8 8 8 8 8 8 9 11 12 12 13 14 14 14 14 13 12 12 11 11 12 11 11 11 11
12 13 15 16 15 14 14 13 13 14 15 15 13 11 11 10 9 9 11 13 13 12 12 13 13 12 13 12 11 11 11 10 9 8 7 7 6 6 5 5 5 6 7 6 6 6 5 4 4 4 5 4 4 3 4 5 5 5 6 6 6 7 7 8 7 8 8 8 9 11 11 12 12 13 14 14 14 13 13 12 12 11 10 10 10 11
12 12 13 14 14 15 15 14 14 14 14 14 15 14 13 12 11 10 11 12 10 10 11 13 11 9 11 12 11 11 10 10 8 7 7 6 6 6 6 6 8 7 5 4 4 4 3 2 2 3 3 3 3 2 3 4 5 6 6 6 6 6 6 7 7 7 8 8 9 10 11 11 11 12 13 14 14 13 13 13 12 11 10 10 10 11
11 11 11 10 11 13 14 14 13 12 12 13 14 14 14 13 13 12 12 12 11 11 12 12 12 11 13 13 11 9 9 8 7 7 6 6 6 6 7 7 6 4 4 4 4 3 2 2 2 2 2 2 2 2 2 3 5 5 6 6 6 6 6 6 6 6 6 7 8 9 10 10 11 12 13 14 13 13 14 14 13 12 11 11 11 12
10 10 10 8 8 10 10 11 12 11 10 10 11 12 13 13 14 15 14 13 13 14 14 14 14 14 15 15 12 10 9 9 8 8 7 7 7 7 7 7 7 5 5 5 4 4 3 2 2 2 2 2 2 2 2 3 3 4 5 6 6 6 6 7 6 6 5 5 6 8 8 9 10 11 11 12 12 13 13 13 12 12 12 13 13 13
8 9 9 9 9 8 8 9 10 10 9 10 11 13 14 13 13 13 14 13 13 14 14 14 14 14 14 14 13 13 13 11 11 11 10 9 9 8 8 8 7 7 6 6 6 5 5 5 4 4 4 4 3 3 3 3 3 3 4 6 6 6 6 6 6 6 7 7 7 8 9 9 10 10 11 11 12 13 14 13 13 13 13 14 14 15
9 8 9 10 10 10 10 9 9 9 9 10 12 13 14 13 11 11 13 14 14 14 13 13 13 12 11 11 12 14 15 13 13 13 12 12 11 10 10 9 9 8 8 8 8 7 7 7 6 5 5 5 5 4 4 4 4 4 5 5 6 6 6 6 6 5 6 7 7 7 8 10 11 12 12 13 13 14 14 14 14 14 14 15 15 16
10 8 9 9 9 10 10 8 8 9 10 11 11 10 9 9 9 9 10 12 13 14 14 13 14 13 12 10 10 12 13 13 13 12 12 12 12 11 11 10 10 9 9 9 9 9 9 8 8 7 6 6 6 6 6 5 6 6 6 6 6 7 7 8 8 7 7 8 8 8 8 9 10 11 12 14 14 15 15 15 15 15 16 16 17 17
11 10 10 10 9 9 8 8 9 10 10 10 9 8 8 9 9 9 8 9 11 13 14 14 14 14 12 11 11 12 12 12 11 11 12 12 12 12 11 11 10 9 9 9 8 8 8 8 8 8 8 9 8 8 8 8 8 8 8 8 9 9 9 9 10 10 11 11 11 11 11 12 12 12 13 13 14 15 16 17 18 18 18 19 19 20
11 11 11 11 11 10 9 8 9 9 9 9 9 9 9 10 11 11 11 10 10 11 12 13 14 14 13 12 12 13 12 11 11 13 13 13 13 12 12 12 12 11 11 11 11 10 9 9 9 10 11 11 11 10 10 10 10 10 10 11 11 11 12 12 12 13 13 13 13 13 14 14 14 15 15 15 16 16 17 18 19 20 21 21 21 22
9 10 11 12 12 12 11 10 9 9 9 9 9 10 10 10 11 13 12 11 11 11 12 13 14 15 15 16 16 15 13 12 13 15 15 15 14 14 13 13 14 14 14 14 14 14 13 12 12 12 12 13 13 14 14 13 13 13 14 14 14 14 14 14 14 15 15 15 16 16 16 17 17 17 18 18 19 19 20 20 20 21 22 22 23 24
10 10 10 11 12 12 11 11 11 10 10 10 11 11 11 10 10 12 12 11 12 12 13 13 14 15 16 17 19 19 17 15 16 17 17 16 15 15 14 14 14 13 13 14 14 14 14 13 13 13 13 13 14 14 15 15 15 15 16 16 16 16 16 16 17 17 18 18 19 19 20 20 20 20 21 21 22 22 23 23 23 24 24 25 25 26
10 9 8 9 10 11 11 11 11 11 12 12 12 11 11 10 9 9 10 12 12 12 12 13 13 14 16 17 18 18 18 18 19 20 19 18 17 16 15 15 14 14 13 13 13 14 14 14 13 13 13 13 14 14 15 15 15 15 16 16 16 17 18 18 19 20 21 21 22 22 23 23 23 24 24 24 24 24 25 26 27 27 28 28 29 29
9 9 8 8 9 9 10 10 11 12 13 14 14 14 12 11 10 9 10 11 11 10 11 12 12 13 14 15 15 15 14 15 17 18 18 18 18 17 16 16 16 15 15 14 14 15 15 15 15 14 15 15 15 16 16 16 16 16 16 17 17 17 18 19 20 21 22 23 24 24 25 26 26 27 27 27 27 27 28 29 30 30 31 32 32 33
8 8 8 7 8 9 10 10 10 11 13 15 15 14 12 11 12 11 11 11 9 9 9 10 11 11 11 11 12 12 12 12 13 14 14 15 15 16 16 16 16 16 16 15 15 15 15 15 15 15 15 16 16 16 17 17 17 18 18 18 19 20 21 21 22 23 23 24 25 25 26 27 28 29 29 30 30 31 31 32 32 32 33 34 35 36
8 8 8 7 7 8 9 9 10 11 12 13 12 11 10 11 12 12 11 10 10 10 10 9 9 10 9 9 10 10 11 10 11 11 11 12 13 14 15 15 15 15 16 15 15 16 16 15 15 15 16 16 17 17 18 18 18 19 19 20 21 22 23 24 24 25 25 26 26 27 27 28 29 30 31 31 32 33 33 33 34 34 35 35 36 37
8 9 9 8 9 9 8 9 9 10 10 9 9 11 11 11 11 10 10 10 9 10 10 10 10 10 10 10 10 10 11 11 11 12 12 12 13 14 14 14 15 15 15 16 16 17 16 16 16 16 17 17 18 18 19 19 20 20 21 21 23 23 24 25 26 27 27 28 28 29 30 30 31 31 32 33 34 35 36 36 36 37 37 37 37 37
8 8 8 9 9 9 9 9 9 8 7 7 8 9 10 9 10 10 10 10 10 10 11 11 11 11 11 11 11 11 12 13 13 14 14 14 14 14 14 14 15 15 15 16 17 17 17 17 17 18 18 18 19 20 20 21 21 22 22 24 25 25 26 27 27 28 29 30 30 31 32 33 33 34 34 35 35 36 36 37 37 38 38 38 38 38
8 7 8 9 9 8 8 8 8 8 7 6 7 8 8 8 9 10 10 11 11 12 12 12 12 12 12 12 12 12 13 14 15 15 15 15 15 15 15 15 15 15 16 16 17 17 17 17 18 18 19 19 20 21 21 22 23 23 24 25 26 27 28 29 29 30 31 31 32 33 33 34 35 35 36 36 36 37 37 37 38 38 39 39 39 40
8 8 8 10 10 10 10 10 10 10 10 9 8 9 9 10 10 10 11 11 12 12 12 13 13 14 14 13 14 15 15 16 16 16 16 16 16 16 16 16 17 16 17 17 17 17 17 18 19 19 19 20 21 22 22 23 23 24 26 27 28 29 30 30 31 32 32 33 33 34 34 34 35 35 36 37 37 37 38 38 39 39 40 40 41 42
9 9 9 10 11 11 11 11 11 10 10 10 10 10 11 12 12 12 12 13 13 13 13 13 14 14 15 15 15 16 16 17 17 17 17 17 17 17 17 18 18 18 18 18 18 18 19 20 20 20 20 21 22 22 23 24 25 26 27 28 29 30 31 31 32 32 32 33 33 33 34 34 35 36 36 37 38 38 39 39 40 41 41 41 41 42
9 9 10 10 10 10 11 11 11 11 10 10 10 11 12 13 13 13 13 14 14 14 15 15 15 15 15 16 16 16 16 17 17 18 18 18 18 18 19 20 20 20 19 19 20 20 20 21 21 21 21 22 23 23 24 25 26 26 27 28 29 30 31 31 32 32 32 32 33 33 34 35 35 36 36 37 38 38 38 39 39 40 41 41 41 42
8 9 9 9 9 10 11 12 12 12 11 11 11 12 12 13 13 13 14 14 15 15 16 16 17 17 17 17 16 16 17 17 17 18 18 18 19 20 21 21 21 21 21 20 20 20 20 20 21 21 22 22 23 23 24 24 25 26 27 28 29 30 30 30 30 31 31 32 32 33 33 34 34 35 35 35 36 36 36 37 37 37 38 38 39 40
8 8 9 9 9 10 10 10 10 10 11 12 11 11 12 13 13 13 13 14 15 16 17 17 17 18 18 18 18 18 18 18 18 18 19 19 20 20 20 21 21 21 21 21 20 19 19 20 20 21 21 22 23 23 24 24 25 26 27 28 29 29 29 29 29 30 30 31 31 32 32 33 33 33 33 34 34 35 35 35 35 36 36 36 37 38
Wind_Direction
228 231 233 233 232 232 232 230 233 237 238 239 241 244 244 246 248 248 246 235 226 226 224 220 222 225 228 234 231 225 235 240 217 206 208 212 218 220 219 219 217 220 225 225 226 231 238 237 232 230 226 227 228 224 225 223 218 217 213 207 202 203 203 196 192 187 184 180 176 174 174 174 173 171 174 178 180 177 174 172 171 178 183 208 252 293
228 232 235 234 232 232 232 231 231 236 240 240 242 247 250 251 251 251 247 234 224 227 224 217 220 225 229 234 227 220 227 229 208 201 205 210 214 214 214 212 211 218 226 230 236 239 237 233 230 230 225 224 225 224 224 219 218 219 213 209 206 202 196 193 191 181 175 175 175 175 175 174 172 172 174 175 175 174 171 170 168 167 170 202 257 293
232 237 236 233 232 231 231 231 230 234 239 240 241 247 249 245 248 253 248 237 232 230 222 214 218 227 232 231 222 217 218 213 205 202 203 206 208 210 212 210 211 217 225 234 241 240 236 231 228 227 223 222 223 223 223 223 223 219 214 213 205 194 190 186 179 172 174 180 180 179 178 176 175 176 180 181 183 182 182 184 180 175 167 173 253 287
231 236 232 229 231 230 231 232 230 235 240 238 238 241 240 234 238 251 255 249 237 221 210 208 216 229 232 228 220 220 220 216 213 207 204 210 214 216 215 214 214 218 226 234 236 237 236 230 227 224 220 221 222 220 222 224 220 214 211 209 200 191 188 185 180 180 185 185 181 180 179 178 177 180 186 188 188 189 191 194 191 188 184 183 266 243
231 231 224 224 231 230 232 232 228 232 239 238 234 232 230 230 235 246 266 271 226 206 199 200 217 233 229 222 223 225 224 222 220 214 213 217 219 219 217 216 215 217 226 231 230 234 234 228 226 222 219 223 223 220 222 220 215 212 207 202 196 191 187 185 186 188 188 184 181 180 180 180 181 184 191 191 187 190 195 203 203 200 195 181 159 193
233 232 227 226 231 230 228 230 227 226 235 240 234 226 226 230 238 247 257 257 204 209 212 202 215 235 231 224 226 227 227 228 226 220 221 218 213 216 218 217 217 221 231 234 232 232 231 227 224 220 220 222 221 221 221 217 213 210 205 198 194 190 189 189 188 187 186 186 185 184 185 187 188 192 196 196 193 197 207 212 208 204 198 201 213 237
233 233 231 226 227 229 228 231 228 223 233 239 233 227 227 228 234 244 247 237 215 216 219 214 217 232 237 231 230 231 230 230 225 219 217 211 207 213 216 217 222 228 234 235 235 232 228 226 222 219 220 219 218 219 218 215 211 207 202 196 191 191 193 192 188 187 187 189 190 191 193 193 195 197 198 200 203 207 215 217 212 210 208 217 241 262
230 233 234 229 228 232 230 230 224 221 231 236 233 230 229 228 229 233 235 236 233 222 221 221 220 230 240 239 238 238 233 226 222 215 211 210 209 212 214 218 224 230 231 230 234 232 225 221 216 215 218 218 217 214 211 211 209 206 200 193 192 194 195 192 190 192 193 195 196 196 197 197 198 201 201 203 205 210 220 223 221 220 220 224 238 257
227 229 231 231 233 232 226 224 223 225 233 234 230 226 226 229 232 229 225 234 237 227 230 229 219 228 241 242 242 237 230 226 221 211 206 210 211 211 215 219 224 227 225 224 227 227 222 219 213 211 216 218 214 210 209 210 207 203 198 193 193 194 194 194 195 197 199 198 195 195 198 197 198 203 204 205 207 215 226 224 216 215 217 220 222 245
231 230 227 228 232 231 228 228 227 228 230 229 226 224 225 229 234 232 225 229 232 225 234 234 221 224 240 242 236 231 231 228 222 213 210 212 212 214 217 219 224 225 221 220 224 229 231 227 216 207 207 206 203 203 206 206 203 198 195 193 193 193 195 197 199 200 199 196 193 192 191 190 193 202 209 214 220 226 230 221 214 218 224 226 225 238
234 233 228 226 229 230 231 232 228 226 224 225 223 221 223 226 233 235 225 222 225 226 229 229 223 223 238 243 231 233 238 225 216 214 214 215 215 217 220 221 224 224 219 222 230 234 234 227 216 207 206 203 200 199 198 198 198 195 194 193 194 195 196 196 197 197 197 195 192 190 191 191 197 210 218 222 225 226 226 220 219 227 235 236 230 232
230 232 230 225 228 228 228 231 229 224 219 218 218 214 219 228 234 234 223 218 224 229 222 220 226 227 231 240 236 240 245 220 208 210 213 215 214 216 221 222 224 223 222 226 230 230 227 221 216 213 211 208 206 204 200 199 200 197 196 195 196 198 197 195 195 196 197 197 195 196 202 205 210 218 224 225 225 226 226 223 223 229 235 236 232 233
229 232 231 227 231 228 226 229 229 230 223 216 214 211 215 222 224 226 222 219 223 228 223 220 231 233 228 238 242 240 240 220 208 207 211 214 213 215 216 214 216 218 218 221 223 223 220 217 216 215 213 209 207 206 202 200 200 199 198 197 197 198 197 198 199 200 202 201 200 205 212 216 218 222 226 227 229 229 228 224 222 226 230 235 238 235
233 235 232 229 231 229 225 223 224 233 223 210 210 210 208 207 213 225 227 222 223 229 230 226 230 234 229 234 241 230 222 215 202 201 205 208 208 208 204 201 206 212 216 219 219 218 215 212 214 215 212 209 207 206 201 197 196 198 198 196 197 197 196 198 201 202 204 203 206 213 219 222 222 225 230 231 230 228 225 224 224 228 235 243 243 231
232 233 229 227 229 226 223 220 220 226 217 210 212 210 210 210 211 219 217 216 224 232 233 224 222 227 219 221 234 225 215 211 199 196 197 198 200 199 197 199 205 215 221 222 219 217 213 211 213 215 214 210 207 204 200 196 198 201 200 198 198 198 198 200 201 201 202 204 209 215 220 223 224 228 233 232 230 227 224 224 226 229 238 246 239 227
234 234 229 227 228 224 222 221 218 221 223 221 216 214 219 218 213 219 219 214 215 224 229 217 215 221 213 218 232 221 211 212 203 198 194 195 200 201 203 208 215 223 227 225 223 219 215 213 215 216 214 210 207 205 202 199 201 203 203 203 203 203 206 206 205 204 205 208 213 217 219 221 225 229 231 229 228 225 224 225 226 227 232 239 235 229
233 237 235 229 228 224 221 219 214 213 219 222 216 216 223 219 212 219 227 225 215 217 227 215 211 220 216 223 232 217 210 214 208 207 208 208 209 210 214 219 224 229 229 226 223 217 215 214 213 213 211 209 208 208 207 205 205 206 206 207 209 212 215 214 213 213 212 214 217 218 219 222 225 228 229 228 225 224 225 226 226 226 229 237 240 238
232 237 241 228 222 224 221 219 217 213 211 216 219 219 222 222 220 217 220 228 224 222 229 218 208 215 220 227 229 217 212 215 212 216 222 225 223 222 226 224 224 227 225 222 218 213 212 210 210 211 211 211 210 208 207 208 210 210 210 211 214 217 218 217 217 217 216 216 218 220 222 224 226 226 227 226 222 222 223 223 224 227 232 239 242 235
234 236 240 227 217 224 222 217 220 219 214 215 219 219 215 215 221 221 217 220 222 223 234 228 214 216 224 225 224 219 215 215 219 225 230 233 231 231 233 228 225 225 220 217 215 212 212 211 212 213 211 210 209 208 209 211 213 214 214 217 221 222 221 221 219 218 218 220 222 224 226 228 227 225 223 221 219 220 221 222 225 230 234 236 232 222
229 229 236 232 223 224 222 217 219 220 218 220 223 223 220 217 219 222 219 217 217 221 230 232 228 230 230 228 227 223 219 219 224 229 234 235 230 230 232 230 227 224 220 219 218 216 214 214 217 217 212 209 209 211 214 216 218 218 219 225 227 225 224 224 222 220 221 223 226 228 231 231 228 224 222 220 220 222 224 226 230 231 230 227 220 213
229 224 227 232 229 221 218 220 220 219 222 225 225 224 224 225 223 221 223 222 216 217 223 223 230 237 233 231 230 223 219 220 218 222 232 232 226 227 231 231 228 225 223 223 220 217 216 216 220 222 218 215 216 217 220 223 224 223 225 228 228 226 226 227 226 225 224 226 227 230 232 231 228 225 224 224 224 226 228 230 231 229 223 218 214 209
230 224 222 226 227 218 216 222 222 221 226 224 224 227 227 227 224 220 228 231 222 220 225 218 221 233 234 230 225 217 218 223 219 221 229 228 225 228 230 229 228 226 223 222 220 220 219 217 218 220 220 221 221 222 224 228 228 227 227 229 229 230 230 228 227 226 227 229 230 230 232 231 228 226 226 226 226 228 230 230 228 223 216 212 209 204
230 224 221 223 224 219 220 225 221 217 224 218 218 230 231 230 228 221 226 233 228 229 234 224 220 231 235 232 219 212 217 221 223 229 232 232 231 230 229 227 227 225 222 220 219 218 217 214 214 218 223 224 222 223 226 228 227 227 230 232 233 233 229 226 224 225 227 230 230 229 230 228 226 226 227 226 226 226 227 225 221 216 210 208 208 205
230 224 221 224 227 225 225 225 222 219 217 213 219 231 230 232 234 225 223 224 225 228 228 226 230 233 237 238 225 214 215 219 225 230 231 235 237 234 232 231 232 231 226 223 219 217 220 221 220 223 224 222 221 223 226 227 225 227 231 234 234 231 228 227 226 227 228 228 227 229 229 226 223 221 221 221 221 222 221 218 216 213 210 211 214 215
226 223 221 221 225 230 229 224 224 224 218 214 224 237 235 233 235 231 224 219 223 227 220 218 231 232 232 237 231 220 219 225 234 234 230 237 242 242 238 235 237 237 233 230 227 225 226 225 222 221 221 222 224 225 224 223 225 229 232 233 233 231 230 230 230 230 229 226 225 227 230 227 222 217 214 215 215 215 214 214 216 216 215 217 220 221
224 225 225 218 214 220 223 221 222 224 224 224 231 243 243 234 232 228 221 218 226 229 221 217 222 222 224 232 235 231 228 232 240 243 241 241 239 238 239 239 239 236 231 230 226 220 218 214 212 215 218 219 222 219 214 216 223 232 235 233 235 235 231 229 231 233 233 230 225 223 227 228 222 215 213 212 211 211 213 215 218 218 217 220 223 224
223 227 227 221 217 217 218 219 220 223 227 230 234 244 242 232 233 226 220 226 227 221 222 223 212 206 215 228 232 235 237 237 241 245 247 244 239 237 238 237 233 225 219 214 206 201 199 196 197 201 200 204 210 206 203 210 223 232 233 234 235 232 226 225 230 232 232 229 223 222 226 225 219 216 214 210 209 212 215 217 220 222 223 225 226 226
225 229 229 227 228 227 222 221 224 227 230 230 231 241 241 235 238 229 225 238 233 219 224 226 213 208 218 227 230 233 234 235 238 239 238 234 229 225 221 223 223 214 203 192 183 180 176 175 184 190 187 195 208 204 203 214 223 221 220 223 224 219 216 222 225 225 226 224 217 217 221 219 216 217 216 212 214 219 223 223 223 226 229 232 233 231
232 232 233 232 231 230 229 226 226 227 231 232 233 240 243 240 240 234 236 245 239 221 217 216 210 216 225 230 233 233 232 234 234 231 225 216 204 199 195 183 172 163 157 157 163 170 172 176 191 193 188 196 204 202 209 218 216 209 210 215 214 212 217 226 225 223 227 224 215 213 217 218 217 218 218 217 218 222 225 225 221 223 229 234 237 236
234 233 237 235 230 231 230 226 225 226 230 237 240 240 238 236 235 234 240 247 239 219 211 206 203 219 233 236 236 230 227 230 229 226 222 214 200 191 176 158 151 147 144 147 156 170 187 207 211 201 196 204 213 219 220 208 200 202 209 217 218 216 220 223 221 223 228 226 220 218 218 219 220 221 221 221 224 225 223 220 219 222 228 231 233 235
230 231 236 233 230 232 229 222 224 228 231 240 243 238 233 233 236 235 237 242 234 222 221 218 213 223 236 237 231 224 220 219 221 222 220 217 204 188 177 173 173 178 179 171 166 173 187 207 213 210 212 217 229 243 237 218 212 214 216 215 214 213 212 211 212 218 224 225 222 219 219 224 229 229 228 228 229 225 218 215 217 223 228 232 236 238
227 229 231 228 230 237 234 227 227 228 231 240 245 244 242 238 235 234 236 239 230 221 224 229 225 227 234 234 230 229 224 218 222 226 220 215 206 193 192 200 206 212 205 194 193 196 196 196 196 200 207 213 223 236 232 224 225 229 227 221 214 211 214 219 220 219 221 223 217 212 218 227 229 226 226 226 220 214 214 218 225 231 236 238 241 244
225 225 228 227 226 237 247 239 228 226 235 243 247 251 249 240 233 234 236 236 232 225 226 229 225 225 231 231 229 232 233 230 232 233 225 218 212 207 209 214 217 220 217 212 215 218 220 221 217 215 221 225 233 242 239 231 226 230 233 230 224 220 221 226 229 228 232 236 231 225 226 227 223 222 226 224 220 222 230 238 240 242 245 246 248 251
236 231 231 231 228 236 248 245 234 233 239 245 251 254 248 236 231 236 235 234 233 230 228 227 224 222 225 227 227 228 231 233 235 234 229 224 221 221 223 226 228 227 224 225 230 233 235 236 234 233 235 239 245 251 251 248 243 236 233 230 230 231 232 233 236 238 240 242 242 240 239 236 234 236 239 238 239 243 247 249 249 251 253 254 256 259
237 235 232 230 229 235 242 241 239 240 239 242 251 259 251 235 229 231 233 233 228 221 222 226 227 226 225 225 223 219 218 222 225 226 226 225 223 223 226 231 232 229 230 234 237 241 244 244 243 243 247 250 252 254 256 259 258 252 246 244 244 246 246 246 250 254 254 254 255 255 255 254 251 250 249 249 252 253 254 254 255 257 259 260 262 263
232 234 230 226 227 230 230 231 234 235 237 241 246 253 253 244 240 236 237 244 237 222 220 224 226 226 224 218 214 210 208 213 219 223 225 226 226 225 226 230 230 229 231 232 232 237 241 242 244 246 251 255 256 257 258 260 260 257 255 256 257 259 258 256 258 261 261 261 262 263 265 265 263 261 260 260 261 261 261 261 262 263 264 265 265 265
230 234 234 230 230 229 224 229 235 234 240 246 243 246 246 242 244 243 237 243 245 228 217 220 223 223 220 214 210 209 211 218 228 234 233 230 230 230 230 233 236 238 240 240 240 241 243 246 250 253 254 256 257 258 258 259 258 257 257 259 260 262 263 261 262 263 263 263 264 266 269 271 270 268 267 267 268 269 269 267 267 268 267 267 268 267
238 242 241 234 235 234 227 228 232 232 238 243 243 248 247 243 250 251 240 237 242 230 217 218 223 225 225 222 219 218 222 230 236 238 236 233 233 234 236 240 243 244 245 247 248 249 250 253 255 257 259 258 259 261 261 261 261 260 261 263 262 261 262 263 263 262 261 261 264 266 269 272 272 271 270 270 271 271 271 269 269 269 269 269 269 269
251 252 248 238 237 237 230 229 233 234 237 242 244 248 251 251 256 252 240 236 236 231 223 221 223 227 229 228 227 228 232 236 237 235 232 231 233 236 238 240 242 243 244 246 247 249 251 252 253 256 259 260 260 261 262 262 263 263 263 265 263 262 263 264 263 262 261 262 264 266 268 271 271 270 270 270 270 270 270 270 269 269 269 270 271 271
251 251 249 241 237 235 233 234 238 239 240 244 247 248 249 250 248 238 234 237 235 230 228 224 222 226 228 228 231 235 236 236 236 235 233 232 236 238 238 240 242 243 245 248 248 249 249 251 254 256 259 261 261 262 262 263 264 265 265 265 265 264 264 264 264 264 264 265 266 267 269 270 271 270 269 268 268 269 269 270 270 271 272 272 273 274
248 247 246 242 235 234 234 234 238 241 244 249 254 255 251 245 238 230 231 234 232 228 228 223 220 225 229 229 232 235 234 230 231 232 233 235 238 240 241 243 245 247 248 250 252 253 253 255 258 259 260 261 260 261 261 261 261 262 263 265 266 266 266 266 266 266 267 268 269 270 271 271 272 271 270 269 269 269 270 272 273 273 273 273 273 273
247 243 246 248 243 238 236 234 237 243 248 251 255 257 252 240 234 233 228 224 222 222 220 216 216 222 227 227 227 227 225 224 226 229 232 235 237 239 241 243 246 248 249 250 252 254 255 257 259 260 259 259 259 261 262 261 262 264 265 266 268 269 269 269 269 270 270 271 271 272 272 273 273 272 271 270 270 271 271 272 272 273 272 272 272 272
242 237 240 248 248 243 238 238 241 245 253 256 253 251 248 238 231 229 223 219 220 218 214 213 217 222 227 229 228 226 225 226 227 230 233 234 236 238 239 240 242 245 248 249 251 253 253 254 256 257 258 260 262 263 264 264 266 267 268 269 270 271 271 271 272 272 272 272 273 273 273 273 273 273 272 272 272 272 272 272 273 273 273 273 273 273
249 240 236 244 249 246 241 241 242 245 255 258 245 238 240 235 226 222 219 220 224 222 220 223 227 228 229 230 232 232 232 233 232 232 234 237 238 239 240 241 242 245 249 251 252 254 255 255 256 257 259 261 262 264 266 267 267 268 270 271 272 272 272 273 273 274 274 275 275 275 274 274 274 274 274 274 274 274 274 274 274 273 273 274 274 274
252 241 240 249 253 250 241 236 236 239 249 253 242 236 236 230 225 224 224 227 231 232 231 232 233 235 235 234 235 237 237 238 238 237 239 241 241 241 243 245 245 248 253 256 256 257 258 259 260 262 263 264 265 266 267 268 269 271 273 274 274 275 275 275 275 275 276 276 276 276 276 276 275 275 275 276 276 275 275 275 274 274 273 273 273 273
245 241 248 251 249 249 244 238 238 241 244 247 244 239 234 227 226 227 228 232 238 239 240 242 241 242 243 242 242 244 245 244 243 242 243 243 243 245 246 248 250 253 257 258 259 260 261 263 265 266 267 269 270 270 271 271 272 273 275 275 276 277 277 277 277 278 278 278 278 278 278 277 277 277 276 276 276 276 276 275 275 274 274 273 273 273
256 257 260 253 249 251 249 246 247 245 241 242 242 240 237 232 230 230 231 234 239 242 244 245 244 244 245 246 247 248 249 248 246 246 246 246 246 249 251 251 253 256 259 260 261 262 264 266 268 269 270 272 273 274 275 276 276 277 277 278 279 280 280 280 280 280 280 280 280 280 280 280 279 279 278 278 277 276 276 276 275 275 275 274 274 274
267 267 264 261 260 257 250 247 249 247 243 244 244 242 239 236 235 235 236 238 242 244 244 245 245 246 248 249 249 249 250 250 249 247 247 248 249 251 253 254 254 256 260 263 265 266 268 270 272 273 273 273 275 276 277 278 278 279 280 281 282 283 282 282 281 281 281 281 281 281 281 281 281 281 280 279 278 278 277 277 276 276 275 275 275 275
274 271 266 263 261 257 251 247 247 249 250 251 248 245 242 239 238 239 242 244 245 245 246 247 250 252 253 251 250 249 250 254 255 252 251 252 254 255 257 258 257 258 262 265 268 271 273 273 273 274 275 275 276 277 278 278 279 280 281 282 283 284 283 282 281 281 281 281 282 282 282 282 282 282 282 281 280 280 279 278 278 277 276 276 275 275
280 273 270 266 258 256 254 247 244 250 255 252 249 247 244 240 240 242 244 246 247 247 248 250 252 254 254 252 250 250 251 254 258 258 256 257 259 260 262 263 262 262 263 265 268 270 272 272 272 273 275 276 277 279 280 280 281 282 284 285 285 286 285 283 283 283 283 283 283 283 283 283 283 283 283 283 283 282 282 281 280 279 278 278 277 276
284 273 268 265 258 257 255 247 243 247 249 245 243 244 242 240 241 242 242 245 248 249 250 252 252 253 254 253 252 253 253 255 258 259 260 260 261 263 264 266 267 265 264 265 267 270 270 271 271 272 274 276 278 280 281 281 282 284 286 287 288 288 287 286 285 285 285 285 284 284 284 284 284 284 284 284 284 284 284 283 282 281 280 280 279 277